When you browse on this site, cookies collect data to enhance your experience and personalize the content and advertising you see.
Visit our Privacy Policy to learn more. By continuing to use the site, you agree to this use of cookies and data.

Stündliche Wetter Megri

Heute, 25 September, Freitag

Zeit Temperatur Niederschläge Wind Luftdruck Luftfeuchtigkeit
00:00 +16°C° 0 mm 2 m/S 623 mmHg 73%
01:00 +15°C° 0 mm 2 m/S 623 mmHg 74%
02:00 +15°C° 0 mm 2 m/S 623 mmHg 76%
03:00 +15°C° 0 mm 2 m/S 623 mmHg 79%
04:00 +14°C° 0 mm 2 m/S 623 mmHg 80%
05:00 +14°C° 0 mm 2 m/S 623 mmHg 81%
06:00 +14°C° 0 mm 2 m/S 623 mmHg 82%
07:00 +16°C° 0 mm 1 m/S 623 mmHg 72%
08:00 +19°C° 0 mm 1 m/S 624 mmHg 63%
09:00 +21°C° 0 mm 1 m/S 625 mmHg 53%
10:00 +22°C° 0 mm 1 m/S 625 mmHg 48%
11:00 +23°C° 0 mm 1 m/S 625 mmHg 42%
12:00 +25°C° 0 mm 2 m/S 625 mmHg 37%
13:00 +25°C° 0 mm 2 m/S 625 mmHg 35%
14:00 +25°C° 0 mm 2 m/S 624 mmHg 34%
15:00 +25°C° 0 mm 2 m/S 624 mmHg 31%
16:00 +24°C° 0 mm 2 m/S 624 mmHg 40%
17:00 +21°C° 0 mm 2 m/S 623 mmHg 48%
18:00 +19°C° 0 mm 3 m/S 623 mmHg 56%
19:00 +18°C° 0 mm 3 m/S 622 mmHg 61%
20:00 +17°C° 0 mm 3 m/S 622 mmHg 65%
21:00 +16°C° 0 mm 3 m/S 622 mmHg 70%
22:00 +16°C° 0 mm 3 m/S 622 mmHg 71%
23:00 +16°C° 0 mm 3 m/S 622 mmHg 73%

Morgen, 26 September, Samstag

Zeit Temperatur Niederschläge Wind Luftdruck Luftfeuchtigkeit
00:00 +15°C° 0 mm 2 m/S 622 mmHg 74%
01:00 +15°C° 0 mm 2 m/S 621 mmHg 74%
02:00 +15°C° 0 mm 2 m/S 621 mmHg 75%
03:00 +14°C° 0 mm 2 m/S 621 mmHg 75%
04:00 +14°C° 0 mm 2 m/S 621 mmHg 77%
05:00 +14°C° 0 mm 1 m/S 621 mmHg 78%
06:00 +13°C° 0 mm 1 m/S 621 mmHg 79%
07:00 +15°C° 0 mm 1 m/S 622 mmHg 69%
08:00 +18°C° 0 mm 1 m/S 622 mmHg 59%
09:00 +20°C° 0 mm 1 m/S 623 mmHg 49%
10:00 +21°C° 0 mm 1 m/S 623 mmHg 43%
11:00 +23°C° 0 mm 2 m/S 623 mmHg 37%
12:00 +24°C° 0 mm 2 m/S 624 mmHg 31%
13:00 +25°C° 0 mm 2 m/S 623 mmHg 30%
14:00 +25°C° 0 mm 2 m/S 623 mmHg 28%
15:00 +25°C° 0 mm 2 m/S 623 mmHg 26%
16:00 +23°C° 0 mm 2 m/S 622 mmHg 33%
17:00 +21°C° 0 mm 2 m/S 622 mmHg 39%
18:00 +19°C° 0 mm 2 m/S 621 mmHg 46%
19:00 +18°C° 0 mm 3 m/S 622 mmHg 51%
20:00 +17°C° 0 mm 3 m/S 622 mmHg 55%
21:00 +16°C° 0 mm 3 m/S 622 mmHg 60%
22:00 +14°C° 0 mm 3 m/S 622 mmHg 61%
23:00 +15°C° 0 mm 2 m/S 622 mmHg 61%

übermorgen, 27 September, Sonntag

Zeit Temperatur Niederschläge Wind Luftdruck Luftfeuchtigkeit
00:00 +15°C° 0 mm 2 m/S 622 mmHg 61%
01:00 +15°C° 0 mm 2 m/S 622 mmHg 61%
02:00 +14°C° 0 mm 2 m/S 622 mmHg 61%
03:00 +14°C° 0 mm 1 m/S 622 mmHg 60%
04:00 +14°C° 0 mm 1 m/S 622 mmHg 61%
05:00 +13°C° 0 mm 1 m/S 622 mmHg 62%
06:00 +13°C° 0 mm 1 m/S 622 mmHg 63%
07:00 +15°C° 0 mm 1 m/S 623 mmHg 55%
08:00 +18°C° 0 mm 1 m/S 624 mmHg 48%
09:00 +20°C° 0 mm 1 m/S 625 mmHg 41%
10:00 +21°C° 0 mm 1 m/S 626 mmHg 38%
11:00 +23°C° 0 mm 2 m/S 626 mmHg 34%
12:00 +24°C° 0 mm 2 m/S 626 mmHg 31%
13:00 +24°C° 0 mm 2 m/S 626 mmHg 31%
14:00 +24°C° 0 mm 3 m/S 626 mmHg 31%
15:00 +24°C° 0 mm 3 m/S 626 mmHg 31%
16:00 +22°C° 0 mm 3 m/S 626 mmHg 36%
17:00 +20°C° 0 mm 3 m/S 625 mmHg 42%
18:00 +18°C° 0 mm 3 m/S 625 mmHg 48%
19:00 +17°C° 0 mm 3 m/S 625 mmHg 52%
20:00 +16°C° 0 mm 3 m/S 625 mmHg 55%
21:00 +14°C° 0 mm 3 m/S 625 mmHg 59%
22:00 +14°C° 0 mm 3 m/S 625 mmHg 59%
23:00 +14°C° 0 mm 2 m/S 626 mmHg 59%

28 September, Montag

Zeit Temperatur Niederschläge Wind Luftdruck Luftfeuchtigkeit
00:00 +14°C° 0 mm 2 m/S 626 mmHg 59%
01:00 +14°C° 0 mm 2 m/S 626 mmHg 61%
02:00 +13°C° 0 mm 2 m/S 626 mmHg 63%
03:00 +13°C° 0 mm 2 m/S 626 mmHg 65%
04:00 +13°C° 0 mm 2 m/S 626 mmHg 67%
05:00 +12°C° 0 mm 2 m/S 626 mmHg 69%
06:00 +12°C° 0 mm 2 m/S 626 mmHg 71%
07:00 +14°C° 0 mm 2 m/S 627 mmHg 65%
08:00 +15°C° 0 mm 2 m/S 628 mmHg 59%
09:00 +17°C° 0 mm 2 m/S 629 mmHg 53%
10:00 +18°C° 0 mm 3 m/S 629 mmHg 49%
11:00 +19°C° 0 mm 3 m/S 629 mmHg 45%
12:00 +20°C° 0 mm 3 m/S 629 mmHg 42%
13:00 +20°C° 0 mm 3 m/S 629 mmHg 42%
14:00 +21°C° 0 mm 4 m/S 628 mmHg 42%
15:00 +21°C° 0 mm 4 m/S 628 mmHg 42%
16:00 +19°C° 0 mm 4 m/S 628 mmHg 47%
17:00 +17°C° 0 mm 4 m/S 627 mmHg 52%
18:00 +15°C° 0 mm 4 m/S 627 mmHg 58%
19:00 +14°C° 0 mm 3 m/S 627 mmHg 60%
20:00 +13°C° 0 mm 3 m/S 627 mmHg 62%
21:00 +12°C° 0 mm 3 m/S 627 mmHg 64%
22:00 +12°C° 0 mm 3 m/S 627 mmHg 63%
23:00 +11°C° 0 mm 3 m/S 626 mmHg 63%

29 September, Dienstag

Zeit Temperatur Niederschläge Wind Luftdruck Luftfeuchtigkeit
00:00 +11°C° 0 mm 3 m/S 626 mmHg 63%
01:00 +10°C° 0 mm 3 m/S 626 mmHg 64%
02:00 +10°C° 0 mm 2 m/S 626 mmHg 64%
03:00 +10°C° 0 mm 2 m/S 625 mmHg 65%
04:00 +10°C° 0 mm 2 m/S 625 mmHg 66%
05:00 +9°C° 0 mm 2 m/S 625 mmHg 68%
06:00 +9°C° 0 mm 2 m/S 625 mmHg 69%
07:00 +12°C° 0 mm 2 m/S 626 mmHg 62%
08:00 +14°C° 0 mm 2 m/S 627 mmHg 55%
09:00 +16°C° 0 mm 2 m/S 627 mmHg 48%
10:00 +17°C° 0 mm 2 m/S 627 mmHg 44%
11:00 +18°C° 0 mm 2 m/S 627 mmHg 39%
12:00 +20°C° 0 mm 3 m/S 628 mmHg 35%
13:00 +20°C° 0 mm 3 m/S 627 mmHg 35%
14:00 +20°C° 0 mm 3 m/S 627 mmHg 35%
15:00 +20°C° 0 mm 3 m/S 626 mmHg 35%
16:00 +18°C° 0 mm 3 m/S 626 mmHg 39%
17:00 +17°C° 0 mm 3 m/S 625 mmHg 44%
18:00 +14°C° 0 mm 3 m/S 625 mmHg 48%
19:00 +13°C° 0 mm 3 m/S 624 mmHg 52%
20:00 +12°C° 0 mm 3 m/S 624 mmHg 56%
21:00 +12°C° 0 mm 3 m/S 624 mmHg 59%
22:00 +11°C° 0 mm 3 m/S 623 mmHg 61%
23:00 +12°C° 0 mm 2 m/S 623 mmHg 63%

30 September, Mittwoch

Zeit Temperatur Niederschläge Wind Luftdruck Luftfeuchtigkeit
00:00 +10°C° 0 mm 2 m/S 623 mmHg 65%
01:00 +10°C° 0 mm 2 m/S 623 mmHg 66%
02:00 +10°C° 0 mm 2 m/S 622 mmHg 67%
03:00 +9°C° 0 mm 2 m/S 622 mmHg 68%
04:00 +9°C° 0 mm 2 m/S 622 mmHg 68%
05:00 +9°C° 0 mm 2 m/S 622 mmHg 69%
06:00 +9°C° 0 mm 2 m/S 621 mmHg 69%
07:00 +12°C° 0 mm 2 m/S 622 mmHg 62%
08:00 +14°C° 0 mm 2 m/S 623 mmHg 54%
09:00 +16°C° 0 mm 2 m/S 623 mmHg 46%
10:00 +17°C° 0 mm 2 m/S 623 mmHg 42%
11:00 +18°C° 0 mm 2 m/S 624 mmHg 38%
12:00 +20°C° 0 mm 2 m/S 624 mmHg 34%
13:00 +20°C° 0 mm 2 m/S 623 mmHg 34%
14:00 +20°C° 0 mm 2 m/S 623 mmHg 34%
15:00 +21°C° 0 mm 2 m/S 623 mmHg 34%
16:00 +19°C° 0 mm 2 m/S 622 mmHg 42%
17:00 +17°C° 0 mm 3 m/S 621 mmHg 49%
18:00 +14°C° 0 mm 3 m/S 621 mmHg 56%
19:00 +14°C° 0 mm 3 m/S 621 mmHg 59%
20:00 +14°C° 0 mm 2 m/S 621 mmHg 62%
21:00 +13°C° 0 mm 2 m/S 622 mmHg 65%
22:00 +13°C° 0 mm 2 m/S 622 mmHg 65%
23:00 +13°C° 0 mm 2 m/S 622 mmHg 64%
Mehr zeigen